Regional Weather Roundup
Issued by NWS Jackson, KY

Home | Current Version | Previous Version | Graphics & Text | Print | Product List | Glossary On
Versions: 1 2 3 4 5 6 7 8 9 10 11 12 13 14 15 16 17 18 19 20 21 22 23 24 25 26 27 28 29 30 31 32 33 34 35 36 37 38 39 40 41 42 43 44 45 46 47 48 49 50
000
ASUS43 KJKL 030110
RWRJKL

EAST KENTUCKY HOURLY WEATHER ROUNDUP
NATIONAL WEATHER SERVICE JACKSON KY
800 PM EST MON MAR 02 2015

NOTE: "FAIR" INDICATES FEW OR NO CLOUDS BELOW 12,000 FEET WITH
NO SIGNIFICANT WEATHER AND/OR OBSTRUCTIONS TO VISIBILITY.

* THESE REPORTS ARE NOT UNDER NWS QUALITY CONTROL AND MAY NOT
  REPORT WEATHER SUCH AS PRECIPITATION AND FOG.

KYZ079-080-083-085-087-088-110-112-115-119-120-030200
...EASTERN KENTUCKY...

CITY           SKY/WX    TMP DP  RH WIND       PRES   REMARKS
JACKSON        MOCLDY    35  19  52 NE3       30.36S
LONDON           N/A     38  17  42 NE5       30.33F WCI  34
SOMERSET*      CLOUDY    34  23  64 NE6       30.35S WCI  29
MONTICELLO*    PTCLDY    37  26  65 CALM      30.37R
MIDDLESBORO*   PTCLDY    33  31  90 CALM      30.33F
HAZARD APT*    CLEAR     37  16  41 NE5       30.36S WCI  34
PIKEVILLE APT* CLEAR     36  19  51 N8        30.35F WCI  29
BIG SANDY*     PTCLDY    35  19  53 NE6       30.38S WCI  30
MOREHEAD APT*  PTCLDY    32  18  55 N7        30.42S WCI  26
$$

KYZ035-036-041-042-044-050-067-078-099-030200
...CENTRAL KENTUCKY...

CITY           SKY/WX    TMP DP  RH WIND       PRES   REMARKS
MT STERLING*   MOCLDY    32  21  64 NE6       30.41S WCI  26
FLEMING/MASON* CLEAR     28  18  64 N6        30.44R WCI  22
DANVILLE*      MOCLDY    32  23  69 NE8       30.37F WCI  25
RICHMOND*      MOCLDY    32  21  64 NE5       30.37F WCI  27
LEXINGTON      CLOUDY    31  21  66 NE9       30.39F WCI  23
FRANKFORT      CLOUDY    32  20  61 E6        30.38F WCI  26
$$

KYZ091>093-OHZ055-061-077-WVZ005-015-034-035-042-030200
...SOUTHERN OHIO/WEST VIRGINIA...

CITY           SKY/WX    TMP DP  RH WIND       PRES   REMARKS
COVINGTON      PTCLDY    31  15  52 E7        30.42S WCI  24
COLUMBUS       PTCLDY    25  10  53 VRB3      30.44S
DAYTON         MOCLDY    21  12  68 CALM      30.43F
WILMINGTON     PTCLDY    19  11  70 E3        30.43S
HUNTINGTON     PTCLDY    32  17  54 NE3       30.41S
CHARLESTON     PTCLDY    33  17  51 N3        30.41R
PINEVILLE*     PTCLDY    32  28  85 MISG      30.40R
BECKLEY        PTCLDY    31  14  49 N5        30.33R WCI  26
BLUEFIELD      PTCLDY    35  17  47 CALM      30.31R
$$

VAZ002-007-008-TNZ017-027-036-066-071-030200
...SOUTHWEST VIRGINIA/EAST TENNESSEE...

CITY           SKY/WX    TMP DP  RH WIND       PRES   REMARKS
WISE*          PTCLDY    34  21  60 NE5       30.31S WCI  30
JONESVILLE*    PTCLDY    32  28  86 CALM      30.35S
ABINGDON*      PTCLDY    37  27  68 CALM      30.32S
BRISTOL        PTCLDY    36  29  75 CALM      30.33F
KNOXVILLE      PTCLDY    41  36  82 E3        30.32
OAK RIDGE      CLEAR     44  30  57 CALM      30.34R
CROSSVILLE     CLOUDY    41  31  67 CALM      30.30F
NASHVILLE      CLOUDY    46  31  55 E6        30.31F
$$

...KEY TO REMARKS...
VSB - VISIBILITY IN MILES
WCI - WIND CHILL INDEX
HX  - HEAT INDEX

$$


USA.gov is the U.S. government's official web portal to all federal, state and local government web resources and services.